Location: Newark
(30.0333°N, 31.2167°E)
Time: 08:44:59
(UTC+00:00)

N. Korean satellite - Visible Passes

Search period start: 12 December 2019 00:00
Search period end: 22 December 2019 00:00
Orbit: 455 x 506 km, 97.2° (Epoch: 11 December)

Date Brightness Start Highest point End Pass type
(mag) Time Alt. Az. Time Alt. Az. Time Alt. Az.
12 Dec 10.1 02:43:27 10° ENE 02:44:21 11° E 02:45:14 10° ESE visible
13 Dec 6.4 03:48:57 10° N 03:52:24 66° WNW 03:55:48 10° SSW visible
13 Dec 9.6 15:52:19 10° SW 15:55:05 20° W 15:57:51 10° NW visible
14 Dec 7.6 03:23:38 10° NNE 03:26:59 46° E 03:30:16 10° S visible
14 Dec 8.0 15:26:03 10° S 15:29:36 45° W 15:33:09 10° NNW visible
15 Dec 9.4 02:58:57 10° NE 03:01:29 19° E 03:03:58 10° SE visible
16 Dec 7.1 04:06:14 10° N 04:09:23 34° WNW 04:12:29 10° SW visible
16 Dec 10.2 16:10:58 10° WSW 16:12:14 11° W 16:13:30 10° WNW visible
17 Dec 6.4 03:40:33 10° N 03:44:01 90° WNW 03:47:25 10° SSW visible
17 Dec 9.2 15:43:36 10° SSW 15:46:42 25° W 15:49:47 10° NW visible
18 Dec 8.2 03:15:24 10° NNE 03:18:33 33° E 03:21:40 10° SSE visible
18 Dec 7.3 15:17:35 10° S 15:21:14 61° W 15:24:51 10° NNW visible
19 Dec 9.7 02:51:04 10° ENE 02:53:01 14° E 02:54:58 10° SE visible
20 Dec 6.7 03:57:41 10° N 04:00:59 45° WNW 04:04:15 10° SSW visible
20 Dec 9.9 16:01:41 10° SW 16:03:48 15° W 16:05:55 10° WNW visible
21 Dec 6.8 03:32:10 10° NNE 03:35:35 66° ESE 03:38:57 10° S visible
21 Dec 8.7 15:34:58 10° SSW 15:38:18 33° W 15:41:36 10° NNW visible
